QPF
0.00 0.01 0.02 0.01 0.01 0.01 0.02 0.02 0.03 0.03 0.03 0.03 0.03 0.02 0.03 0.03 0.04 0.03 0.06 0.07 0.07 0.06 0.05 0.05 0.04 0.03 0.03 0.03 0.03 0.04 0.05 0.14 0.10 0.05 0.06 0.16 0.19 0.10 0.05 0.04 0.03 0.04 0.05
0.01 0.01 0.01 0.01 0.02 0.02 0.03 0.03 0.03 0.04 0.04 0.02 0.02 0.03 0.03 0.03 0.03 0.02 0.03 0.05 0.08 0.07 0.05 0.05 0.06 0.05 0.03 0.03 0.03 0.04 0.06 0.17 0.15 0.10 0.12 0.21 0.15 0.08 0.04 0.04 0.04 0.04 0.06
0.01 0.01 0.01 0.01 0.01 0.01 0.01 0.01 0.02 0.02 0.03 0.02 0.03 0.04 0.03 0.03 0.02 0.02 0.02 0.03 0.03 0.04 0.02 0.03 0.04 0.04 0.04 0.04 0.04 0.04 0.05 0.13 0.19 0.20 0.20 0.18 0.10 0.05 0.05 0.04 0.04 0.05 0.06
0.01 0.01 0.01 0.01 0.01 0.01 0.00 0.01 0.02 0.03 0.02 0.03 0.05 0.05 0.04 0.03 0.02 0.02 0.03 0.03 0.03 0.02 0.02 0.02 0.02 0.03 0.05 0.05 0.05 0.05 0.05 0.07 0.12 0.15 0.13 0.10 0.07 0.06 0.06 0.05 0.05 0.05 0.06
0.01 0.01 0.01 0.01 0.01 0.01 0.01 0.01 0.01 0.03 0.03 0.05 0.05 0.05 0.04 0.03 0.02 0.02 0.02 0.02 0.03 0.03 0.03 0.02 0.01 0.01 0.03 0.04 0.06 0.06 0.07 0.07 0.07 0.08 0.07 0.07 0.09 0.09 0.08 0.06 0.05 0.05 0.06
0.01 0.01 0.00 0.01 0.01 0.01 0.01 0.01 0.01 0.02 0.03 0.05 0.04 0.04 0.03 0.03 0.02 0.02 0.02 0.02 0.03 0.04 0.02 0.03 0.01 0.01 0.01 0.02 0.04 0.05 0.07 0.07 0.06 0.07 0.07 0.08 0.09 0.09 0.08 0.07 0.05 0.05 0.06
0.02 0.01 0.01 0.01 0.01 0.01 0.01 0.01 0.01 0.01 0.02 0.02 0.02 0.03 0.02 0.03 0.02 0.02 0.02 0.03 0.03 0.03 0.02 0.02 0.02 0.01 0.01 0.01 0.03 0.05 0.05 0.07 0.09 0.10 0.09 0.08 0.08 0.08 0.07 0.06 0.05 0.06 0.06
0.02 0.02 0.02 0.01 0.02 0.01 0.01 0.01 0.02 0.03 0.02 0.01 0.02 0.02 0.02 0.03 0.02 0.02 0.03 0.03 0.03 0.03 0.03 0.02 0.02 0.01 0.00 0.01 0.01 0.03 0.03 0.05 0.08 0.11 0.10 0.09 0.09 0.08 0.07 0.06 0.05 0.05 0.05
0.03 0.02 0.02 0.01 0.02 0.02 0.02 0.02 0.03 0.03 0.02 0.01 0.01 0.01 0.01 0.02 0.02 0.02 0.03 0.03 0.04 0.03 0.03 0.03 0.03 0.02 0.01 0.01 0.01 0.01 0.02 0.04 0.07 0.09 0.12 0.10 0.09 0.09 0.07 0.06 0.05 0.03 0.03
0.03 0.02 0.02 0.02 0.02 0.03 0.02 0.02 0.03 0.03 0.02 0.02 0.02 0.01 0.01 0.01 0.02 0.03 0.03 0.04 0.04 0.03 0.02 0.03 0.04 0.04 0.03 0.01 0.01 0.01 0.02 0.03 0.07 0.10 0.11 0.09 0.08 0.08 0.07 0.05 0.04 0.02 0.02
0.02 0.02 0.02 0.03 0.02 0.02 0.02 0.02 0.02 0.02 0.03 0.02 0.03 0.03 0.03 0.02 0.02 0.02 0.03 0.03 0.04 0.04 0.03 0.03 0.03 0.04 0.04 0.03 0.01 0.01 0.02 0.03 0.05 0.09 0.10 0.09 0.08 0.07 0.06 0.04 0.04 0.03 0.03
0.02 0.02 0.01 0.01 0.02 0.02 0.02 0.02 0.01 0.01 0.02 0.02 0.02 0.02 0.02 0.01 0.02 0.03 0.03 0.03 0.04 0.04 0.04 0.03 0.03 0.03 0.04 0.04 0.02 0.02 0.02 0.02 0.03 0.06 0.07 0.08 0.05 0.04 0.05 0.04 0.04 0.03 0.03
0.01 0.01 0.01 0.01 0.01 0.01 0.01 0.02 0.01 0.01 0.01 0.01 0.01 0.01 0.01 0.01 0.01 0.01 0.02 0.03 0.03 0.03 0.03 0.03 0.03 0.03 0.04 0.05 0.04 0.03 0.02 0.02 0.02 0.04 0.05 0.05 0.03 0.02 0.03 0.04 0.05 0.05 0.04
0.01 0.01 0.01 0.01 0.01 0.01 0.01 0.01 0.01 0.01 0.01 0.01 0.01 0.01 0.01 0.02 0.02 0.02 0.02 0.03 0.03 0.03 0.04 0.03 0.03 0.03 0.04 0.05 0.05 0.03 0.02 0.02 0.02 0.03 0.04 0.04 0.03 0.01 0.02 0.03 0.04 0.07 0.09
0.02 0.01 0.01 0.00 0.00 0.00 0.01 0.01 0.02 0.01 0.01 0.01 0.01 0.01 0.01 0.02 0.03 0.02 0.02 0.02 0.03 0.03 0.03 0.03 0.02 0.03 0.04 0.05 0.06 0.04 0.03 0.03 0.02 0.02 0.03 0.04 0.02 0.01 0.01 0.02 0.03 0.05 0.08
0.04 0.02 0.01 0.01 0.01 0.00 0.01 0.01 0.01 0.02 0.02 0.02 0.02 0.02 0.01 0.01 0.03 0.02 0.02 0.02 0.03 0.03 0.03 0.03 0.03 0.03 0.03 0.04 0.05 0.05 0.04 0.05 0.04 0.02 0.02 0.03 0.02 0.01 0.01 0.01 0.02 0.04 0.05
0.04 0.03 0.02 0.01 0.01 0.01 0.02 0.02 0.02 0.02 0.02 0.01 0.02 0.02 0.02 0.02 0.02 0.03 0.03 0.03 0.03 0.03 0.03 0.03 0.03 0.02 0.03 0.03 0.04 0.05 0.04 0.03 0.04 0.04 0.03 0.03 0.02 0.01 0.01 0.02 0.03 0.04 0.04
0.06 0.03 0.02 0.01 0.01 0.01 0.02 0.02 0.02 0.02 0.02 0.02 0.02 0.02 0.02 0.02 0.03 0.03 0.04 0.04 0.04 0.04 0.04 0.03 0.03 0.02 0.02 0.04 0.04 0.05 0.07 0.06 0.05 0.05 0.04 0.04 0.03 0.02 0.02 0.02 0.04 0.04 0.04
0.07 0.07 0.04 0.02 0.02 0.02 0.02 0.03 0.03 0.03 0.02 0.02 0.02 0.02 0.02 0.02 0.03 0.03 0.03 0.04 0.05 0.05 0.04 0.04 0.03 0.03 0.03 0.04 0.05 0.03 0.03 0.05 0.05 0.05 0.05 0.06 0.05 0.03 0.02 0.02 0.04 0.04 0.04
0.06 0.07 0.05 0.03 0.02 0.02 0.02 0.03 0.04 0.03 0.03 0.03 0.02 0.02 0.02 0.02 0.02 0.03 0.03 0.04 0.05 0.05 0.04 0.05 0.04 0.04 0.03 0.03 0.04 0.05 0.03 0.03 0.04 0.04 0.05 0.06 0.08 0.06 0.05 0.03 0.03 0.04 0.04
0.07 0.07 0.06 0.05 0.03 0.03 0.03 0.03 0.04 0.03 0.03 0.02 0.02 0.02 0.02 0.01 0.01 0.02 0.03 0.04 0.04 0.04 0.04 0.05 0.05 0.05 0.04 0.03 0.03 0.04 0.05 0.03 0.03 0.04 0.03 0.04 0.05 0.05 0.06 0.05 0.05 0.04 0.04
0.06 0.07 0.06 0.05 0.05 0.05 0.06 0.05 0.04 0.03 0.02 0.02 0.01 0.02 0.02 0.01 0.01 0.01 0.02 0.02 0.03 0.04 0.04 0.03 0.04 0.03 0.03 0.02 0.02 0.03 0.06 0.05 0.03 0.03 0.04 0.03 0.03 0.03 0.03 0.04 0.05 0.05 0.04
0.06 0.08 0.07 0.05 0.04 0.05 0.06 0.05 0.03 0.02 0.02 0.01 0.01 0.01 0.02 0.02 0.02 0.02 0.02 0.02 0.02 0.03 0.04 0.03 0.02 0.02 0.02 0.02 0.02 0.02 0.04 0.06 0.04 0.03 0.03 0.04 0.03 0.02 0.02 0.02 0.03 0.04 0.04
0.07 0.08 0.08 0.06 0.04 0.03 0.04 0.05 0.05 0.02 0.02 0.02 0.03 0.02 0.02 0.02 0.03 0.04 0.04 0.03 0.01 0.02 0.02 0.02 0.02 0.03 0.04 0.04 0.03 0.03 0.03 0.05 0.05 0.04 0.03 0.02 0.03 0.03 0.03 0.03 0.03 0.02 0.03
0.06 0.06 0.06 0.06 0.05 0.03 0.04 0.05 0.05 0.03 0.02 0.01 0.02 0.03 0.03 0.02 0.02 0.04 0.04 0.03 0.03 0.02 0.02 0.02 0.03 0.04 0.06 0.06 0.05 0.04 0.05 0.06 0.05 0.05 0.04 0.03 0.02 0.02 0.02 0.01 0.02 0.02 0.02
0.04 0.06 0.06 0.06 0.06 0.05 0.04 0.05 0.07 0.05 0.03 0.02 0.01 0.03 0.03 0.03 0.03 0.03 0.02 0.02 0.03 0.03 0.03 0.02 0.02 0.02 0.03 0.05 0.05 0.04 0.04 0.04 0.05 0.05 0.04 0.04 0.02 0.02 0.02 0.01 0.01 0.01 0.01
MSLP
1014.35 1014.53 1014.60 1014.61 1014.58 1014.55 1014.57 1014.66 1014.83 1015.05 1015.30 1015.55 1015.77 1015.94 1016.06 1016.12 1016.15 1016.14 1016.13 1016.10 1016.06 1016.00 1015.92 1015.83 1015.71 1015.61 1015.52 1015.48 1015.50 1015.60 1015.77 1016.02 1016.34 1016.70 1017.09 1017.48 1017.86 1018.22 1018.54 1018.81 1019.04 1019.24 1019.41
1014.47 1014.67 1014.79 1014.84 1014.85 1014.86 1014.92 1015.03 1015.20 1015.43 1015.70 1015.96 1016.19 1016.38 1016.51 1016.58 1016.60 1016.58 1016.52 1016.43 1016.32 1016.19 1016.04 1015.87 1015.69 1015.53 1015.41 1015.35 1015.36 1015.45 1015.64 1015.91 1016.26 1016.65 1017.06 1017.48 1017.89 1018.26 1018.59 1018.88 1019.13 1019.35 1019.57
1014.53 1014.76 1014.92 1015.03 1015.11 1015.18 1015.28 1015.43 1015.62 1015.86 1016.12 1016.39 1016.63 1016.82 1016.95 1017.02 1017.02 1016.96 1016.85 1016.69 1016.49 1016.26 1016.01 1015.75 1015.49 1015.27 1015.09 1015.00 1015.00 1015.11 1015.32 1015.63 1016.01 1016.44 1016.90 1017.35 1017.79 1018.19 1018.55 1018.87 1019.16 1019.44 1019.72
1014.52 1014.78 1015.00 1015.19 1015.35 1015.50 1015.66 1015.84 1016.05 1016.30 1016.55 1016.81 1017.03 1017.22 1017.34 1017.40 1017.38 1017.28 1017.11 1016.87 1016.57 1016.23 1015.86 1015.48 1015.12 1014.82 1014.59 1014.46 1014.45 1014.56 1014.80 1015.14 1015.58 1016.06 1016.57 1017.08 1017.56 1018.01 1018.42 1018.80 1019.15 1019.51 1019.87
1014.47 1014.75 1015.03 1015.30 1015.55 1015.78 1016.01 1016.23 1016.47 1016.71 1016.95 1017.19 1017.39 1017.56 1017.67 1017.71 1017.67 1017.53 1017.30 1016.98 1016.59 1016.13 1015.64 1015.14 1014.67 1014.27 1013.96 1013.79 1013.75 1013.87 1014.13 1014.52 1015.01 1015.55 1016.13 1016.70 1017.24 1017.76 1018.23 1018.68 1019.12 1019.55 1020.00
1014.39 1014.69 1015.03 1015.37 1015.70 1016.01 1016.30 1016.57 1016.82 1017.05 1017.28 1017.48 1017.67 1017.82 1017.92 1017.95 1017.89 1017.73 1017.46 1017.08 1016.61 1016.05 1015.44 1014.83 1014.24 1013.74 1013.35 1013.11 1013.05 1013.16 1013.44 1013.86 1014.39 1015.00 1015.64 1016.28 1016.89 1017.48 1018.03 1018.56 1019.08 1019.60 1020.15
1014.31 1014.62 1014.99 1015.39 1015.79 1016.17 1016.51 1016.80 1017.06 1017.28 1017.48 1017.66 1017.83 1017.97 1018.07 1018.10 1018.05 1017.90 1017.62 1017.21 1016.68 1016.05 1015.36 1014.64 1013.96 1013.36 1012.89 1012.59 1012.48 1012.57 1012.85 1013.29 1013.86 1014.51 1015.21 1015.91 1016.60 1017.25 1017.88 1018.49 1019.09 1019.69 1020.31
1014.26 1014.56 1014.95 1015.38 1015.82 1016.23 1016.60 1016.91 1017.16 1017.37 1017.54 1017.70 1017.85 1017.99 1018.11 1018.18 1018.17 1018.04 1017.79 1017.39 1016.86 1016.20 1015.46 1014.68 1013.93 1013.25 1012.71 1012.34 1012.19 1012.24 1012.50 1012.94 1013.53 1014.21 1014.94 1015.69 1016.43 1017.15 1017.84 1018.51 1019.18 1019.85 1020.53
1014.24 1014.52 1014.90 1015.33 1015.78 1016.20 1016.57 1016.88 1017.11 1017.30 1017.45 1017.60 1017.75 1017.91 1018.06 1018.18 1018.23 1018.17 1017.99 1017.65 1017.15 1016.52 1015.78 1014.99 1014.20 1013.48 1012.89 1012.47 1012.26 1012.27 1012.50 1012.92 1013.49 1014.18 1014.92 1015.70 1016.47 1017.23 1017.96 1018.67 1019.38 1020.08 1020.80
1014.24 1014.49 1014.84 1015.25 1015.68 1016.09 1016.44 1016.72 1016.93 1017.10 1017.24 1017.38 1017.54 1017.73 1017.92 1018.11 1018.24 1018.28 1018.19 1017.95 1017.54 1016.98 1016.30 1015.54 1014.77 1014.05 1013.43 1012.99 1012.74 1012.70 1012.88 1013.26 1013.80 1014.45 1015.19 1015.95 1016.73 1017.49 1018.24 1018.97 1019.69 1020.40 1021.12
1014.24 1014.46 1014.77 1015.15 1015.54 1015.91 1016.23 1016.49 1016.67 1016.82 1016.95 1017.10 1017.27 1017.49 1017.74 1017.99 1018.21 1018.36 1018.38 1018.26 1017.97 1017.52 1016.95 1016.28 1015.57 1014.89 1014.30 1013.85 1013.57 1013.50 1013.63 1013.94 1014.42 1015.02 1015.71 1016.44 1017.19 1017.93 1018.67 1019.38 1020.09 1020.80 1021.50
1014.22 1014.41 1014.69 1015.03 1015.38 1015.71 1016.00 1016.22 1016.39 1016.53 1016.66 1016.81 1017.00 1017.25 1017.54 1017.86 1018.15 1018.39 1018.53 1018.53 1018.39 1018.09 1017.65 1017.11 1016.52 1015.93 1015.40 1014.97 1014.69 1014.58 1014.66 1014.90 1015.31 1015.83 1016.45 1017.12 1017.81 1018.51 1019.21 1019.89 1020.57 1021.24 1021.90
1014.14 1014.33 1014.59 1014.90 1015.21 1015.51 1015.77 1015.98 1016.15 1016.28 1016.41 1016.57 1016.78 1017.05 1017.37 1017.72 1018.07 1018.38 1018.62 1018.75 1018.75 1018.60 1018.34 1017.96 1017.52 1017.05 1016.61 1016.24 1015.98 1015.86 1015.89 1016.06 1016.38 1016.82 1017.34 1017.93 1018.55 1019.18 1019.82 1020.46 1021.08 1021.70 1022.32
1013.99 1014.19 1014.45 1014.74 1015.04 1015.33 1015.59 1015.79 1015.97 1016.11 1016.26 1016.43 1016.65 1016.91 1017.24 1017.60 1017.97 1018.34 1018.65 1018.88 1019.01 1019.03 1018.94 1018.75 1018.48 1018.17 1017.85 1017.57 1017.35 1017.23 1017.22 1017.33 1017.56 1017.90 1018.32 1018.81 1019.35 1019.90 1020.47 1021.04 1021.61 1022.18 1022.74
1013.77 1013.99 1014.26 1014.55 1014.86 1015.16 1015.43 1015.67 1015.86 1016.04 1016.20 1016.39 1016.60 1016.86 1017.16 1017.51 1017.88 1018.25 1018.61 1018.92 1019.17 1019.34 1019.42 1019.42 1019.34 1019.19 1019.02 1018.84 1018.69 1018.59 1018.56 1018.61 1018.77 1019.01 1019.34 1019.73 1020.17 1020.64 1021.13 1021.64 1022.14 1022.65 1023.15
1013.48 1013.72 1014.01 1014.33 1014.66 1014.99 1015.29 1015.57 1015.81 1016.02 1016.22 1016.41 1016.62 1016.85 1017.12 1017.43 1017.77 1018.14 1018.52 1018.89 1019.23 1019.53 1019.77 1019.94 1020.04 1020.07 1020.05 1020.00 1019.92 1019.86 1019.83 1019.86 1019.95 1020.11 1020.34 1020.63 1020.98 1021.37 1021.78 1022.22 1022.66 1023.10 1023.54
1013.13 1013.39 1013.70 1014.04 1014.40 1014.77 1015.13 1015.46 1015.75 1016.01 1016.23 1016.44 1016.64 1016.85 1017.08 1017.35 1017.65 1017.99 1018.37 1018.77 1019.19 1019.59 1019.96 1020.29 1020.56 1020.76 1020.89 1020.96 1020.98 1020.98 1020.97 1020.98 1021.03 1021.13 1021.28 1021.50 1021.76 1022.07 1022.41 1022.76 1023.13 1023.51 1023.90
1012.77 1013.02 1013.33 1013.70 1014.09 1014.50 1014.91 1015.29 1015.63 1015.93 1016.19 1016.41 1016.61 1016.80 1017.00 1017.23 1017.49 1017.80 1018.17 1018.59 1019.05 1019.53 1020.01 1020.47 1020.88 1021.22 1021.49 1021.68 1021.80 1021.87 1021.90 1021.92 1021.96 1022.02 1022.13 1022.28 1022.47 1022.71 1022.97 1023.25 1023.55 1023.86 1024.18
1012.41 1012.64 1012.94 1013.31 1013.72 1014.16 1014.60 1015.02 1015.40 1015.74 1016.03 1016.27 1016.47 1016.65 1016.83 1017.03 1017.27 1017.56 1017.92 1018.34 1018.83 1019.36 1019.91 1020.46 1020.98 1021.44 1021.82 1022.12 1022.33 1022.48 1022.57 1022.63 1022.68 1022.74 1022.82 1022.93 1023.07 1023.24 1023.43 1023.65 1023.87 1024.11 1024.36
1012.10 1012.29 1012.57 1012.92 1013.33 1013.77 1014.22 1014.65 1015.05 1015.41 1015.71 1015.97 1016.19 1016.38 1016.56 1016.75 1016.98 1017.27 1017.62 1018.04 1018.53 1019.09 1019.68 1020.28 1020.86 1021.39 1021.86 1022.25 1022.55 1022.78 1022.94 1023.06 1023.15 1023.23 1023.31 1023.41 1023.51 1023.63 1023.76 1023.90 1024.05 1024.21 1024.39
1011.89 1012.03 1012.26 1012.58 1012.95 1013.36 1013.79 1014.20 1014.59 1014.95 1015.26 1015.53 1015.77 1015.98 1016.18 1016.39 1016.63 1016.92 1017.27 1017.69 1018.18 1018.73 1019.32 1019.93 1020.54 1021.11 1021.63 1022.08 1022.46 1022.76 1023.00 1023.19 1023.34 1023.47 1023.57 1023.67 1023.76 1023.84 1023.91 1023.99 1024.06 1024.15 1024.25
1011.80 1011.89 1012.07 1012.33 1012.64 1012.99 1013.36 1013.73 1014.08 1014.41 1014.71 1014.99 1015.24 1015.48 1015.72 1015.96 1016.23 1016.54 1016.89 1017.31 1017.78 1018.30 1018.87 1019.45 1020.05 1020.62 1021.16 1021.65 1022.08 1022.46 1022.77 1023.03 1023.25 1023.43 1023.58 1023.69 1023.78 1023.84 1023.87 1023.88 1023.89 1023.91 1023.94
1011.87 1011.91 1012.03 1012.22 1012.46 1012.72 1013.00 1013.28 1013.57 1013.84 1014.12 1014.39 1014.66 1014.93 1015.21 1015.50 1015.81 1016.14 1016.51 1016.91 1017.36 1017.84 1018.36 1018.90 1019.45 1020.00 1020.53 1021.03 1021.50 1021.93 1022.31 1022.64 1022.93 1023.17 1023.35 1023.50 1023.59 1023.63 1023.63 1023.60 1023.55 1023.50 1023.47
1012.08 1012.09 1012.16 1012.27 1012.41 1012.57 1012.74 1012.92 1013.11 1013.32 1013.55 1013.81 1014.08 1014.38 1014.71 1015.04 1015.39 1015.76 1016.14 1016.53 1016.94 1017.38 1017.83 1018.31 1018.81 1019.31 1019.82 1020.32 1020.81 1021.27 1021.70 1022.09 1022.43 1022.72 1022.95 1023.11 1023.21 1023.24 1023.22 1023.16 1023.07 1022.98 1022.90
1012.43 1012.42 1012.43 1012.47 1012.51 1012.55 1012.60 1012.67 1012.75 1012.88 1013.05 1013.28 1013.55 1013.87 1014.22 1014.60 1014.99 1015.38 1015.77 1016.15 1016.54 1016.93 1017.33 1017.75 1018.19 1018.65 1019.13 1019.62 1020.11 1020.59 1021.05 1021.47 1021.85 1022.17 1022.42 1022.59 1022.70 1022.73 1022.69 1022.61 1022.50 1022.39 1022.28
1012.87 1012.83 1012.81 1012.77 1012.71 1012.65 1012.58 1012.52 1012.50 1012.54 1012.64 1012.83 1013.08 1013.40 1013.77 1014.17 1014.58 1014.99 1015.39 1015.77 1016.13 1016.49 1016.85 1017.23 1017.62 1018.05 1018.50 1018.98 1019.46 1019.95 1020.42 1020.86 1021.25 1021.58 1021.84 1022.01 1022.11 1022.13 1022.09 1022.01 1021.89 1021.77 1021.67
Thickness
5711 5710 5709 5709 5708 5708 5707 5706 5706 5706 5706 5706 5705 5705 5705 5705 5706 5707 5709 5710 5712 5712 5714 5715 5716 5716 5717 5718 5719 5720 5721 5723 5724 5724 5724 5722 5721 5720 5719 5719 5718 5718 5718
5708 5707 5706 5705 5704 5704 5703 5702 5702 5701 5701 5701 5700 5700 5700 5701 5701 5702 5703 5705 5706 5707 5708 5710 5711 5712 5713 5713 5714 5716 5717 5718 5720 5720 5719 5718 5716 5715 5714 5714 5713 5713 5713
5706 5704 5702 5701 5700 5700 5699 5698 5697 5697 5696 5696 5695 5695 5695 5696 5696 5697 5698 5699 5700 5702 5703 5705 5706 5707 5708 5708 5709 5711 5712 5713 5714 5714 5714 5712 5711 5710 5709 5709 5708 5708 5708
5703 5701 5699 5697 5697 5696 5695 5694 5693 5691 5690 5690 5689 5690 5690 5691 5691 5692 5693 5694 5695 5696 5698 5699 5700 5701 5703 5703 5704 5705 5706 5706 5707 5708 5708 5707 5705 5705 5704 5704 5703 5703 5702
5699 5698 5696 5694 5694 5692 5691 5691 5688 5686 5685 5684 5685 5685 5685 5686 5687 5688 5688 5689 5690 5691 5693 5694 5695 5696 5697 5698 5699 5700 5701 5701 5701 5701 5701 5701 5700 5699 5699 5699 5698 5697 5697
5696 5694 5692 5691 5690 5688 5686 5685 5683 5682 5681 5680 5681 5680 5680 5681 5682 5683 5684 5684 5685 5686 5687 5689 5690 5691 5692 5693 5694 5695 5696 5695 5696 5696 5696 5695 5694 5694 5694 5694 5693 5692 5691
5691 5690 5688 5687 5685 5683 5682 5681 5679 5677 5676 5676 5674 5672 5674 5676 5676 5678 5679 5680 5680 5681 5683 5684 5684 5685 5686 5687 5689 5690 5690 5690 5691 5691 5690 5690 5690 5689 5689 5688 5687 5686 5686
5687 5686 5684 5682 5681 5679 5677 5676 5675 5672 5671 5672 5668 5665 5662 5665 5669 5673 5673 5674 5675 5676 5677 5678 5679 5680 5681 5682 5683 5684 5685 5685 5686 5686 5685 5685 5684 5684 5683 5683 5682 5681 5681
5683 5681 5680 5679 5677 5675 5672 5671 5671 5669 5666 5666 5667 5663 5657 5655 5658 5664 5666 5668 5669 5670 5671 5672 5673 5674 5675 5676 5677 5678 5679 5680 5680 5680 5680 5679 5679 5678 5678 5677 5677 5676 5676
5678 5677 5676 5674 5673 5671 5669 5668 5667 5666 5664 5662 5662 5662 5661 5658 5654 5654 5658 5661 5663 5664 5665 5666 5667 5668 5669 5670 5671 5672 5673 5674 5674 5675 5675 5674 5673 5673 5672 5672 5672 5671 5671
5672 5672 5671 5670 5668 5667 5665 5664 5663 5662 5661 5659 5658 5657 5656 5654 5653 5650 5649 5652 5655 5657 5659 5660 5661 5662 5663 5664 5665 5666 5667 5667 5668 5668 5668 5668 5668 5668 5667 5666 5666 5666 5665
5666 5667 5666 5665 5664 5663 5662 5660 5659 5658 5656 5656 5654 5653 5652 5650 5648 5647 5645 5645 5646 5649 5652 5654 5655 5656 5657 5657 5658 5659 5660 5661 5661 5661 5661 5662 5662 5662 5661 5661 5660 5660 5660
5660 5661 5661 5660 5659 5659 5658 5657 5655 5653 5652 5651 5650 5649 5648 5647 5647 5645 5642 5640 5640 5642 5645 5646 5648 5649 5650 5651 5651 5652 5653 5654 5655 5655 5655 5656 5656 5656 5656 5655 5655 5655 5655
5656 5656 5656 5656 5655 5654 5653 5652 5651 5650 5649 5647 5647 5645 5644 5643 5643 5642 5639 5637 5635 5635 5637 5639 5641 5642 5643 5644 5645 5646 5647 5648 5649 5649 5650 5650 5650 5650 5650 5650 5650 5650 5650
5651 5651 5651 5650 5650 5649 5648 5647 5645 5644 5643 5642 5641 5640 5639 5638 5638 5638 5637 5636 5632 5629 5629 5632 5634 5636 5637 5639 5639 5641 5641 5642 5643 5643 5644 5644 5644 5644 5644 5644 5644 5644 5644
5645 5645 5645 5645 5644 5643 5643 5642 5640 5640 5638 5637 5636 5635 5634 5634 5633 5633 5632 5631 5630 5628 5625 5627 5628 5630 5631 5632 5633 5634 5635 5636 5637 5638 5638 5638 5638 5639 5638 5638 5638 5638 5638
5640 5640 5639 5638 5638 5637 5636 5635 5634 5633 5632 5632 5631 5630 5629 5629 5628 5627 5626 5626 5625 5624 5621 5621 5622 5624 5624 5625 5626 5628 5629 5630 5631 5632 5632 5632 5632 5632 5632 5632 5632 5633 5633
5634 5634 5633 5632 5632 5631 5630 5629 5628 5627 5626 5625 5625 5624 5624 5624 5622 5622 5621 5620 5619 5619 5618 5616 5616 5617 5618 5619 5620 5621 5622 5623 5624 5626 5626 5627 5627 5627 5626 5627 5627 5626 5626
5628 5628 5627 5626 5625 5625 5624 5623 5623 5622 5621 5620 5619 5618 5618 5618 5617 5616 5615 5615 5615 5615 5614 5612 5611 5611 5611 5613 5613 5614 5615 5616 5618 5619 5620 5621 5621 5621 5621 5621 5621 5621 5621
5621 5621 5620 5620 5619 5619 5618 5617 5616 5615 5614 5613 5613 5613 5613 5613 5612 5611 5611 5610 5609 5608 5607 5606 5605 5604 5605 5606 5607 5607 5607 5609 5611 5612 5613 5614 5615 5615 5615 5615 5616 5615 5615
5614 5614 5613 5612 5612 5612 5612 5610 5609 5608 5607 5606 5606 5606 5607 5607 5608 5607 5607 5605 5604 5602 5600 5599 5598 5598 5598 5598 5600 5601 5601 5602 5603 5605 5606 5607 5608 5609 5609 5609 5610 5610 5610
5606 5605 5605 5604 5604 5605 5605 5605 5603 5601 5599 5598 5598 5598 5599 5600 5601 5601 5602 5601 5600 5598 5595 5594 5593 5593 5593 5594 5595 5595 5594 5594 5595 5598 5598 5599 5601 5602 5603 5603 5604 5604 5605
5598 5597 5596 5596 5596 5596 5598 5597 5597 5594 5592 5591 5591 5590 5592 5593 5593 5593 5594 5594 5593 5594 5594 5592 5590 5590 5590 5591 5590 5589 5588 5588 5590 5592 5592 5592 5593 5594 5596 5597 5598 5598 5598
5589 5588 5588 5587 5587 5588 5589 5590 5589 5587 5585 5585 5584 5584 5583 5584 5585 5585 5585 5584 5584 5585 5586 5587 5587 5588 5588 5588 5587 5586 5584 5583 5584 5584 5585 5584 5586 5587 5590 5591 5591 5592 5592
5580 5579 5579 5578 5578 5579 5581 5581 5580 5578 5577 5577 5577 5576 5576 5576 5578 5578 5576 5575 5575 5576 5578 5579 5580 5582 5582 5582 5580 5578 5576 5575 5575 5576 5577 5577 5579 5579 5581 5583 5585 5585 5586
5571 5571 5570 5570 5570 5570 5572 5573 5572 5570 5569 5568 5568 5568 5568 5569 5570 5570 5568 5567 5567 5568 5569 5570 5571 5572 5573 5573 5573 5572 5571 5569 5568 5568 5571 5570 5571 5571 5572 5576 5577 5578 5578